Location: Shell Point
(30.0571°N, 84.2896°W)
Time: 05:54:18
(UTC-04:00)

Meteor 2-19 Rocket - Visible Passes

Search period start: 01 May 2016 00:00
Search period end: 11 May 2016 00:00
Orbit: 936 x 959 km, 82.5° (Epoch: 30 April)

Date Brightness Start Highest point End Pass type
(mag) Time Alt. Az. Time Alt. Az. Time Alt. Az.
01 May 5.3 21:36:04 10° NNW 21:41:57 50° W 21:47:50 10° SSW visible
02 May 6.2 21:53:37 10° NNW 21:58:47 30° W 22:03:59 10° SSW visible
03 May 7.0 22:11:41 10° NW 22:15:33 18° W 22:19:25 10° SW visible
04 May 4.5 20:42:08 10° N 20:48:17 83° E 20:54:26 10° S visible
05 May 5.1 20:59:13 10° NNW 21:05:14 60° W 21:11:15 10° S visible
06 May 6.1 21:16:36 10° NNW 21:22:05 36° W 21:27:36 10° SSW visible
07 May 6.9 21:34:26 10° NW 21:38:52 21° W 21:43:20 10° SW visible
08 May 7.3 21:53:26 10° WNW 21:55:35 12° W 21:57:43 10° WSW visible
10 May 5.9 20:39:39 10° NNW 20:45:23 43° W 20:51:07 10° SSW visible
